Find Kosmos-2493

NORAD ID: 39490 Int'l Des: 2013-078 Owner: PVO Country: RU operational
LEOCIRCULARPOLAR

現在のビュー

3D地球を読み込み中...

About Kosmos-2493

Kosmos-2493 (NORAD 39490) is a satellite launched Dec 28, 2013 by PVO of RU. It operates in LEO, CIRCULAR, POLAR orbit with a mass of 50.00 kg.

次回通過

Passes for default location (London). Set your location on the main map for personalized predictions.

高度履歴

Loading altitude history...

軌道要素

1 39490U 13078A 26195.59495121 .00001578 00000-0 11725-3 0 9993
2 39490 82.4109 234.3710 0013977 145.9833 214.2291 15.02286137682070
Epoch: Jul 14, 2026 • Age: 9 hours

現在のステータス

高度 563.9 km
遠地点 / 近地点 N/A
速度 7.58 km/s
衛星直下点 -23.95°S, 136.92°E
打ち上げ日 Dec 28, 2013
運用期間 12.5 years
タイプ other

技術仕様

分類 Payload
質量 50.00 kg
乾燥質量 50.00 kg
総質量 50.00 kg
長さ 0.80 m
直径 0.80 m
スパン 0.80 m
形状 Sphere
製造者 ALMAN
バスタイプ SKRL
フェーズステータス In Orbit
所有者/国 PVO/RU

Most Searched